EW5674 Weather Reports


Display with metric or nautical units.
time (UTC)temp
F
wind
direction
speed
MPH
gust
MPH
rain 1hr
in
rain 24hr
in
rain mn
in
humidity
%
barometer
mb
20260506013032 32 212 0.0 0.0 0.00 0.01 0.00 1 1014.5
20260506011531 32 212 0.0 1.0 0.00 0.01 0.00 1 1014.4
20260506010024 32 189 0.0 0.0 0.00 0.01 0.00 1 1014.4
20260506004518 33 189 0.0 0.0 0.00 0.01 0.00 1 1014.4
20260506003015 33 212 0.0 0.0 0.00 0.01 0.00 1 1014.5
20260506001513 33 212 0.0 0.0 0.00 0.01 0.00 1 1014.5
20260506000006 34 212 0.0 1.0 0.00 0.01 0.00 1 1014.5
20260505234505 34 212 0.0 0.0 0.00 0.01 0.00 4 1014.5
20260505233057 34 212 0.0 0.0 0.00 0.01 0.00 7 1014.5
20260505231554 35 189 0.0 1.0 0.00 0.01 0.00 7 1014.4
20260505230051 35 189 0.0 1.0 0.00 0.01 0.00 12 1014.4
20260505224545 36 189 0.0 1.0 0.00 0.01 0.00 14 1014.5
20260505223046 36 189 0.0 0.0 0.00 0.01 0.00 14 1014.4
20260505221536 37 189 0.0 1.0 0.00 0.01 0.00 15 1014.4
20260505220032 37 189 0.0 2.0 0.00 0.01 0.00 17 1014.4
20260505214534 37 189 0.0 1.0 0.00 0.01 0.01 22 1014.3
20260505213022 38 189 0.0 1.0 0.00 0.01 0.01 25 1014.4
20260505211534 38 189 0.0 2.0 0.00 0.01 0.01 26 1014.4
20260505210014 38 189 0.0 1.0 0.00 0.01 0.01 30 1014.5
20260505204509 39 189 0.0 4.0 0.00 0.01 0.01 33 1014.3
20260505203005 39 189 0.0 1.0 0.00 0.01 0.01 37 1014.3
20260505201501 40 189 0.0 2.0 0.00 0.01 0.01 39 1014.3
20260505200058 40 189 0.0 1.0 0.00 0.01 0.01 39 1014.4
20260505194552 41 188 0.0 4.0 0.00 0.01 0.01 39 1014.2
20260505193047 42 160 0.0 4.0 0.00 0.01 0.01 40 1014.2
20260505191550 42 212 0.0 4.0 0.00 0.01 0.01 40 1014.1
20260505190041 43 160 1.0 6.0 0.00 0.01 0.01 38 1014.0
20260505184545 44 212 1.0 4.0 0.00 0.01 0.01 38 1013.9
20260505183038 45 196 2.0 7.0 0.00 0.01 0.01 39 1013.7
20260505181526 46 212 2.0 9.0 0.00 0.01 0.01 39 1013.7
20260505180022 46 141 4.0 11.0 0.00 0.01 0.01 39 1013.7
20260505174517 46 150 5.0 9.0 0.00 0.01 0.01 39 1013.8
20260505173016 47 138 4.0 11.0 0.00 0.01 0.01 40 1013.8
20260505171509 49 212 2.0 8.0 0.00 0.01 0.01 39 1013.8
20260505170010 48 194 4.0 9.0 0.00 0.01 0.01 38 1013.7
20260505164603 47 212 2.0 12.0 0.00 0.01 0.01 39 1013.7
20260505163055 48 149 3.0 13.0 0.00 0.01 0.01 39 1013.6
20260505161551 49 177 4.0 10.0 0.00 0.01 0.01 37 1013.6
20260505153045 49 212 2.0 11.0 0.00 0.01 0.01 35 1013.8
20260505151540 48 201 4.0 11.0 0.00 0.01 0.01 35 1013.8
20260505124551 47 150 6.0 14.0 0.00 0.01 0.01 37 1013.8
20260505123046 48 140 6.0 12.0 0.00 0.01 0.01 35 1013.6
20260505121547 48 103 3.0 10.0 0.00 0.01 0.01 35 1013.5
20260505120037 49 144 4.0 9.0 0.00 0.01 0.01 33 1013.4
20260505114532 47 124 3.0 11.0 0.00 0.01 0.01 34 1013.5
20260505113038 48 221 2.0 8.0 0.00 0.01 0.01 31 1013.4
20260505111538 46 79 2.0 8.0 0.00 0.01 0.01 31 1013.4
20260505101519 44 156 3.0 9.0 0.00 0.01 0.01 30 1013.5
20260505100003 44 153 2.0 10.0 0.00 0.01 0.01 32 1013.5
20260505094605 45 212 2.0 5.0 0.00 0.01 0.01 35 1013.4
20260505093056 45 185 1.0 6.0 0.00 0.01 0.01 34 1013.4
20260505091550 46 193 0.0 5.0 0.00 0.01 0.01 32 1013.2
20260505090050 45 198 0.0 5.0 0.00 0.01 0.01 32 1013.2
20260505084541 44 185 0.0 4.0 0.00 0.01 0.01 32 1013.0
20260505083043 44 144 0.0 4.0 0.01 0.01 0.01 30 1013.0
20260505081532 44 165 1.0 3.0 0.01 0.01 0.01 25 1012.9
20260505080031 44 194 0.0 5.0 0.01 0.01 0.01 21 1012.9
20260505074524 43 202 0.0 4.0 0.01 0.01 0.01 15 1012.9
20260505073019 43 228 0.0 1.0 0.00 0.00 0.00 9 1012.9
20260505071515 42 221 0.0 5.0 0.00 0.00 0.00 6 1012.9
20260505070020 41 227 0.0 2.0 0.00 0.00 0.00 1 1012.9
20260505064511 40 249 0.0 4.0 0.00 0.00 0.00 1 1012.9
20260505063002 38 247 1.0 3.0 0.00 0.00 0.00 1 1013.0
20260505061618 37 246 0.0 1.0 0.00 0.00 0.00 1 1013.1
20260505060057 36 245 0.0 0.0 0.00 0.00 0.00 1 1013.0
20260505054554 34 245 0.0 0.0 0.00 0.00 0.00 1 1013.0
20260505053044 33 245 0.0 1.0 0.00 0.00 0.00 1 1013.0
20260505051540 32 245 0.0 0.0 0.00 0.00 0.00 1 1013.0
20260505041523 31 244 0.0 1.0 0.00 0.00 0.00 1 1012.4
20260505040035 31 245 0.0 1.0 0.00 0.00 0.00 1 1012.2
20260505034518 31 245 0.0 1.0 0.00 0.00 0.00 1 1012.4
20260505033014 32 244 0.0 0.0 0.00 0.00 0.00 1 1012.5
20260505031505 32 245 0.0 0.0 0.00 0.00 0.00 1 1012.6
20260505024556 32 245 0.0 0.0 0.00 0.00 0.00 1 1012.6
20260505023052 32 245 0.0 1.0 0.00 0.00 0.00 1 1012.5
20260505021548 32 244 0.0 0.0 0.00 0.00 0.00 1 1012.4
20260505020044 32 245 0.0 1.0 0.00 0.00 0.00 1 1012.6
20260505014542 33 245 0.0 1.0 0.00 0.00 0.00 1 1012.3